SCP
0 0 0 0 0 0 0 0 1 1 1 1 1 0 0 -0 0 0 0 0 0 0 0 0 0 0 0 0 0 0 0 0 0 0 0 0 0 0 0 0 0 0 0
0 0 0 0 1 0 0 0 0 1 1 1 1 1 0 0 0 -0 0 0 0 0 0 0 0 0 0 0 0 0 0 0 0 0 0 0 0 0 0 0 0 0 0
0 0 0 1 1 1 1 1 1 1 1 1 1 1 1 1 0 0 0 0 0 0 0 0 0 1 0 0 0 0 0 0 0 0 0 0 0 0 0 0 0 0 0
0 0 0 1 1 1 1 1 1 2 1 1 1 1 1 1 1 1 0 1 0 0 1 1 0 1 0 1 0 0 0 0 0 0 0 0 0 0 0 0 0 0 0
0 0 1 1 1 1 1 1 1 2 2 1 1 1 1 1 1 1 1 2 1 0 0 0 1 1 1 0 0 0 0 0 0 0 0 0 0 0 0 0 0 0 0
0 0 0 0 1 1 2 2 2 2 2 1 1 1 1 1 2 2 1 1 1 1 1 0 1 1 1 0 0 0 0 0 0 0 0 0 0 0 0 0 0 0 0
0 0 0 0 0 1 2 3 3 2 3 2 1 1 1 1 1 2 2 2 2 2 2 2 2 2 1 0 0 0 0 0 0 0 0 0 0 0 0 0 0 0 0
0 0 0 0 0 0 0 1 2 2 3 3 3 2 1 2 1 1 2 3 2 5 3 2 1 1 0 0 0 0 0 0 0 0 0 0 0 0 0 0 0 0 0
0 0 0 0 0 0 0 0 0 0 1 2 4 3 3 2 3 3 3 5 3 2 1 1 0 0 0 0 0 0 0 0 0 0 0 0 0 0 0 0 0 0 0
0 0 0 0 0 0 0 0 0 0 0 0 1 2 3 2 2 3 2 2 2 1 1 0 0 0 0 0 0 0 0 0 0 0 0 0 0 0 0 0 0 0 0
0 0 0 0 0 0 0 0 0 0 0 0 0 1 2 2 2 2 2 2 2 1 1 1 0 0 0 0 0 0 0 0 0 0 0 0 0 0 0 0 0 0 0
0 0 0 0 0 0 0 0 0 0 0 0 0 0 1 1 1 1 1 2 1 1 0 0 0 0 0 0 0 0 0 0 0 0 0 0 0 0 0 0 0 0 0
0 0 0 0 0 0 0 0 0 0 0 0 0 0 0 0 1 2 1 1 1 1 0 0 0 0 0 0 -0 -0 -0 0 0 0 0 0 0 0 0 0 0 0 0
0 0 0 0 0 0 0 0 0 0 0 0 0 0 0 0 0 0 0 0 0 0 0 0 0 0 0 0 0 0 0 0 0 0 0 0 0 0 0 0 0 0 0
0 0 0 0 0 0 0 0 0 0 0 0 0 0 -0 0 0 0 1 1 0 0 0 0 0 0 0 0 0 0 0 0 0 0 0 0 0 0 0 0 0 0 0
0 0 0 0 0 0 0 0 0 0 0 0 0 0 0 0 0 0 0 0 1 0 1 1 0 0 0 0 0 0 0 0 0 0 0 0 0 0 0 0 0 0 0
0 0 0 0 0 0 0 0 0 0 0 0 0 0 0 0 0 0 0 0 0 0 1 0 0 0 0 0 0 0 0 1 0 0 0 0 0 0 0 0 0 0 0
0 0 0 0 0 0 0 0 0 0 0 0 0 0 0 0 0 0 0 0 0 0 0 0 0 0 0 0 0 0 0 0 0 0 0 0 0 0 0 0 0 0 0
0 0 0 0 0 0 0 0 0 0 0 0 0 0 0 0 0 0 -0 -0 -0 0 0 0 0 0 0 0 0 0 0 0 0 0 0 0 0 0 0 0 0 0 0
0 0 0 0 0 0 0 0 0 0 0 0 0 0 0 0 0 0 0 -0 -0 -0 0 0 0 0 0 0 0 0 0 0 0 0 0 0 0 0 0 0 0 0 0
0 0 0 0 0 0 0 0 0 0 0 0 0 0 0 0 0 0 0 0 -0 0 0 0 0 0 1 0 0 0 0 0 0 0 0 0 0 0 0 0 0 0 0
0 0 0 0 0 0 0 0 0 0 0 0 0 0 0 0 0 0 0 0 0 0 0 0 0 0 0 0 0 0 0 0 0 0 0 0 0 0 0 0 0 0 0
0 0 0 0 0 0 0 0 0 0 0 0 0 0 0 0 0 1 0 0 0 0 0 0 0 0 0 0 0 0 0 0 0 0 0 0 0 0 0 0 0 0 0
0 0 0 0 0 0 0 0 0 0 0 0 0 0 0 0 1 1 0 0 0 0 0 0 0 0 0 0 0 0 0 0 0 0 0 0 0 0 0 0 0 0 0
0 0 0 0 0 0 0 0 0 0 0 0 0 0 0 1 1 1 1 0 0 0 0 0 0 0 0 0 0 0 0 0 0 0 0 0 0 0 0 0 0 0 -0
0 0 0 0 0 0 0 0 0 0 0 0 0 0 0 1 1 1 0 0 0 0 0 0 -0 -0 -0 0 0 0 0 0 0 0 0 0 0 0 0 0 0 0 0
Wind_Speed_500mb
16 21 24 23 20 16 28 35 40 49 56 60 61 57 64 59 50 51 58 67 58 51 53 43 35 45 36 31 31 26 24 17 19 19 15 13 17 16 15 10 11 11 9
24 26 28 26 27 17 17 30 37 44 53 56 55 57 56 51 57 70 52 45 59 55 50 50 37 39 34 41 37 31 20 20 24 21 18 16 16 20 19 17 16 16 13
29 31 32 30 29 28 23 22 34 39 47 52 52 61 70 72 70 71 74 67 57 57 56 55 49 47 45 36 41 34 31 24 25 30 19 15 19 16 23 27 22 24 19
27 31 31 32 32 30 29 25 25 35 38 44 49 54 56 71 75 70 60 57 55 61 58 56 55 54 48 40 41 39 32 33 29 28 34 28 12 16 13 24 28 28 26
29 33 35 33 35 33 31 24 14 21 29 34 42 42 49 46 52 62 67 66 58 56 57 52 57 57 52 50 49 43 37 33 32 30 25 33 28 28 23 19 22 28 28
29 35 37 37 39 37 36 28 17 11 16 23 31 37 40 37 40 42 35 39 45 51 54 50 58 56 54 54 52 49 43 42 38 32 33 27 23 26 26 27 21 24 24
27 34 39 43 47 48 43 38 33 17 7 14 22 25 32 33 37 42 39 37 33 35 42 56 63 66 57 48 51 49 48 48 49 46 34 30 27 24 22 24 22 21 23
25 29 36 39 40 46 47 44 39 31 26 17 15 20 24 25 27 36 37 39 34 44 47 50 60 64 61 46 42 47 47 39 46 49 45 30 28 27 24 24 24 23 25
19 24 32 37 37 38 40 41 41 39 35 26 19 19 24 27 28 33 40 50 55 52 54 48 47 44 29 39 42 39 39 46 49 46 48 43 29 26 25 24 25 26 22
15 21 28 32 32 33 34 36 36 37 37 34 30 24 15 21 31 39 38 50 44 45 36 29 28 41 42 47 34 47 37 49 49 47 41 45 30 27 24 22 22 22 20
16 19 22 25 29 32 33 35 33 30 32 33 33 32 23 18 15 23 29 33 36 36 37 41 38 56 60 73 62 60 57 51 51 50 42 46 40 28 25 22 21 18 16
19 21 25 28 28 29 33 31 31 30 29 29 31 32 29 22 17 17 22 33 36 46 38 41 48 29 38 47 47 76 59 62 55 48 51 53 50 42 34 26 27 21 22
24 25 26 27 29 30 28 25 27 28 28 28 27 28 29 27 22 14 18 24 39 42 46 42 43 41 45 31 35 35 64 75 72 61 59 64 57 52 35 36 30 25 25
19 23 27 29 31 30 28 23 22 24 25 26 25 24 25 26 23 25 21 25 29 30 37 38 45 47 42 50 37 47 67 64 68 64 64 69 58 54 49 46 43 33 31
21 21 23 26 30 31 31 28 27 27 27 29 24 21 17 19 22 21 20 21 23 28 34 40 43 53 58 55 44 51 72 68 71 77 71 74 69 57 53 50 51 46 45
25 27 31 33 32 33 35 35 34 32 30 28 23 21 20 16 19 19 18 18 18 20 29 34 42 55 70 70 70 69 68 71 63 63 77 84 75 63 71 61 56 59 55
29 35 39 38 37 37 35 37 37 36 32 28 24 23 20 19 14 17 18 19 19 20 22 30 42 51 60 67 68 69 65 66 68 77 80 84 85 87 90 71 63 68 64
38 41 40 40 40 40 41 40 39 38 36 33 28 25 27 23 17 15 17 21 22 23 25 24 28 43 56 54 57 60 66 67 77 83 89 89 78 78 94 95 82 78 76
43 45 42 43 46 46 43 42 43 43 40 39 34 30 28 29 22 16 15 18 23 25 27 31 31 31 41 56 55 57 54 62 75 77 80 77 76 80 84 85 76 70 74
49 50 52 52 49 47 45 46 45 44 45 41 39 36 32 31 29 22 17 19 22 23 27 30 32 35 39 41 50 58 64 65 66 66 69 78 75 81 86 105 94 92 79
51 51 51 46 50 50 45 45 45 46 44 45 43 40 35 33 35 28 20 19 21 25 29 33 33 35 35 39 45 50 56 59 62 63 68 65 65 65 74 79 107 113 88
49 44 46 45 40 38 39 41 43 43 45 45 46 42 37 34 37 32 24 22 21 25 28 30 31 31 31 34 37 47 45 53 53 55 49 44 39 34 46 83 98 93 83
42 35 33 34 36 35 36 45 51 44 44 45 44 44 39 37 40 33 27 20 21 18 22 27 30 41 39 34 32 40 53 54 61 51 46 39 40 42 40 56 95 108 85
38 37 35 36 42 38 39 39 41 40 42 44 43 43 43 40 37 33 28 21 16 16 21 27 36 40 41 36 33 36 40 49 50 53 51 48 44 39 33 45 71 73 97
42 40 42 42 44 43 43 43 43 36 40 40 39 41 43 39 37 36 30 25 24 21 26 32 38 40 40 37 33 34 36 44 46 53 50 49 51 45 38 47 64 85 80
44 45 41 42 42 40 42 43 35 32 34 34 34 36 40 40 24 25 23 21 19 19 23 24 27 31 30 29 30 31 27 34 35 34 39 37 49 44 43 54 68 72 80
Wind_Direction_500mb
4 1 2 3 342 264 237 232 234 233 229 232 231 229 215 211 209 222 254 239 240 239 242 236 238 244 237 235 241 255 251 233 220 207 219 219 215 215 214 211 206 205 171
352 358 356 353 357 341 255 242 236 236 236 233 231 227 227 226 223 213 243 245 242 242 245 245 235 244 232 243 243 250 232 230 219 210 218 224 233 237 226 215 209 212 213
351 355 356 356 350 345 327 262 243 231 235 230 235 234 229 229 226 231 244 247 246 244 245 248 239 242 235 238 242 251 248 236 234 217 213 225 242 208 230 221 214 218 213
9 5 4 2 357 344 337 313 251 240 233 232 229 236 231 234 235 239 249 253 248 243 242 244 245 241 237 228 243 248 249 231 235 237 233 233 230 228 209 229 225 221 221
30 25 19 13 4 3 356 350 303 246 236 234 228 235 237 240 241 242 247 252 251 245 242 240 241 238 237 240 242 248 256 238 230 236 241 240 244 247 252 256 227 234 229
38 36 34 26 21 15 15 9 3 306 269 248 244 235 236 238 233 236 239 231 243 240 236 234 233 233 236 239 245 246 255 243 238 231 231 234 239 244 244 249 250 231 230
38 35 33 31 27 25 24 24 20 1 333 276 253 252 242 241 237 230 238 228 229 217 223 224 227 232 234 231 239 246 252 250 246 243 236 236 239 241 242 242 247 231 219
47 42 29 24 25 26 28 28 26 23 8 339 283 264 251 245 245 235 225 226 220 209 220 223 228 232 236 232 236 246 257 251 251 245 238 236 240 238 238 237 237 238 227
46 28 20 19 21 23 21 23 24 22 20 12 344 295 269 250 242 232 235 220 224 242 243 244 236 237 254 255 236 254 253 249 253 245 244 237 239 235 233 230 227 231 230
23 20 18 14 13 12 12 11 14 15 16 16 4 347 318 275 266 255 249 249 247 245 244 222 246 247 257 278 267 242 253 256 250 245 245 237 233 232 227 224 225 223 228
335 342 350 356 356 358 355 353 357 6 7 2 360 5 343 320 289 260 250 236 232 218 235 255 259 256 267 268 241 221 236 242 246 243 235 240 228 228 223 218 218 215 208
358 345 330 328 329 331 340 350 352 350 354 358 357 357 358 349 324 286 238 221 230 231 247 239 241 248 244 262 242 233 224 228 239 239 240 243 239 229 220 216 217 209 210
6 4 356 346 336 334 325 333 338 337 340 346 351 354 355 358 343 301 286 240 235 251 248 244 233 235 231 235 217 219 200 214 220 243 246 243 235 235 220 220 227 214 212
356 355 350 345 341 332 326 322 318 322 327 329 335 346 354 352 352 347 319 261 249 243 249 234 236 231 229 211 245 219 203 215 231 237 236 239 238 236 231 237 227 215 214
326 331 331 331 331 327 322 316 306 314 315 322 316 325 347 352 349 349 343 327 291 259 246 245 241 234 230 220 239 231 216 238 249 243 242 235 234 234 240 234 232 226 222
314 316 319 318 317 318 319 313 311 304 305 311 302 301 316 335 341 342 342 338 326 295 262 264 258 245 235 237 249 255 246 255 247 244 236 233 232 239 243 245 237 236 231
317 315 312 309 305 305 305 304 301 301 297 299 296 286 290 303 329 332 332 328 322 317 301 280 260 253 254 256 260 254 254 243 245 244 240 238 241 241 237 238 239 237 236
315 312 308 304 303 300 296 294 292 289 289 288 288 277 275 284 301 318 324 335 330 312 294 283 285 271 258 256 258 252 249 248 245 245 247 251 247 237 235 233 242 234 233
308 306 303 302 299 296 295 292 287 282 280 278 277 274 268 271 279 288 305 331 336 325 312 297 285 278 275 260 257 253 245 249 248 244 244 249 247 242 235 232 232 232 235
306 304 300 297 294 293 292 289 287 282 275 270 270 268 264 259 264 269 285 316 331 324 314 303 294 289 285 271 257 251 247 252 249 246 246 247 246 244 240 240 225 227 239
304 303 297 293 292 293 290 286 285 282 280 271 268 268 266 259 253 255 268 298 318 322 318 310 303 293 285 292 258 253 245 246 246 247 246 251 251 254 247 249 234 223 229
305 300 296 292 292 293 292 289 287 285 282 278 269 265 264 256 250 247 260 284 304 318 322 313 310 295 279 282 262 246 249 242 241 239 239 248 242 250 262 253 225 216 218
309 306 299 293 292 296 296 291 289 284 281 278 272 264 260 253 247 239 249 270 291 310 317 314 310 305 295 275 267 261 253 248 236 237 243 243 253 255 273 243 224 210 210
310 306 301 296 297 299 297 302 293 290 281 276 271 262 255 251 246 234 243 250 273 292 305 309 308 305 297 286 273 266 261 240 235 233 242 255 259 252 265 241 221 210 212
307 299 295 291 292 296 298 300 299 291 287 275 267 261 249 245 242 229 226 240 262 290 305 308 307 305 297 287 282 269 263 255 237 236 238 243 243 239 233 223 230 226 216
303 299 292 288 293 293 298 304 305 290 284 281 273 259 248 235 222 224 248 241 259 283 292 296 308 313 304 294 287 279 264 252 251 242 245 243 230 225 225 229 226 224 224
Wind_Speed_850mb
16 21 24 23 20 16 28 35 40 49 56 60 61 57 64 59 50 51 58 67 58 51 53 43 35 45 36 31 31 26 24 17 19 19 15 13 17 16 15 10 11 11 9
24 26 28 26 27 17 17 30 37 44 53 56 55 57 56 51 57 70 52 45 59 55 50 50 37 39 34 41 37 31 20 20 24 21 18 16 16 20 19 17 16 16 13
29 31 32 30 29 28 23 22 34 39 47 52 52 61 70 72 70 71 74 67 57 57 56 55 49 47 45 36 41 34 31 24 25 30 19 15 19 16 23 27 22 24 19
27 31 31 32 32 30 29 25 25 35 38 44 49 54 56 71 75 70 60 57 55 61 58 56 55 54 48 40 41 39 32 33 29 28 34 28 12 16 13 24 28 28 26
29 33 35 33 35 33 31 24 14 21 29 34 42 42 49 46 52 62 67 66 58 56 57 52 57 57 52 50 49 43 37 33 32 30 25 33 28 28 23 19 22 28 28
29 35 37 37 39 37 36 28 17 11 16 23 31 37 40 37 40 42 35 39 45 51 54 50 58 56 54 54 52 49 43 42 38 32 33 27 23 26 26 27 21 24 24
27 34 39 43 47 48 43 38 33 17 7 14 22 25 32 33 37 42 39 37 33 35 42 56 63 66 57 48 51 49 48 48 49 46 34 30 27 24 22 24 22 21 23
25 29 36 39 40 46 47 44 39 31 26 17 15 20 24 25 27 36 37 39 34 44 47 50 60 64 61 46 42 47 47 39 46 49 45 30 28 27 24 24 24 23 25
19 24 32 37 37 38 40 41 41 39 35 26 19 19 24 27 28 33 40 50 55 52 54 48 47 44 29 39 42 39 39 46 49 46 48 43 29 26 25 24 25 26 22
15 21 28 32 32 33 34 36 36 37 37 34 30 24 15 21 31 39 38 50 44 45 36 29 28 41 42 47 34 47 37 49 49 47 41 45 30 27 24 22 22 22 20
16 19 22 25 29 32 33 35 33 30 32 33 33 32 23 18 15 23 29 33 36 36 37 41 38 56 60 73 62 60 57 51 51 50 42 46 40 28 25 22 21 18 16
19 21 25 28 28 29 33 31 31 30 29 29 31 32 29 22 17 17 22 33 36 46 38 41 48 29 38 47 47 76 59 62 55 48 51 53 50 42 34 26 27 21 22
24 25 26 27 29 30 28 25 27 28 28 28 27 28 29 27 22 14 18 24 39 42 46 42 43 41 45 31 35 35 64 75 72 61 59 64 57 52 35 36 30 25 25
19 23 27 29 31 30 28 23 22 24 25 26 25 24 25 26 23 25 21 25 29 30 37 38 45 47 42 50 37 47 67 64 68 64 64 69 58 54 49 46 43 33 31
21 21 23 26 30 31 31 28 27 27 27 29 24 21 17 19 22 21 20 21 23 28 34 40 43 53 58 55 44 51 72 68 71 77 71 74 69 57 53 50 51 46 45
25 27 31 33 32 33 35 35 34 32 30 28 23 21 20 16 19 19 18 18 18 20 29 34 42 55 70 70 70 69 68 71 63 63 77 84 75 63 71 61 56 59 55
29 35 39 38 37 37 35 37 37 36 32 28 24 23 20 19 14 17 18 19 19 20 22 30 42 51 60 67 68 69 65 66 68 77 80 84 85 87 90 71 63 68 64
38 41 40 40 40 40 41 40 39 38 36 33 28 25 27 23 17 15 17 21 22 23 25 24 28 43 56 54 57 60 66 67 77 83 89 89 78 78 94 95 82 78 76
43 45 42 43 46 46 43 42 43 43 40 39 34 30 28 29 22 16 15 18 23 25 27 31 31 31 41 56 55 57 54 62 75 77 80 77 76 80 84 85 76 70 74
49 50 52 52 49 47 45 46 45 44 45 41 39 36 32 31 29 22 17 19 22 23 27 30 32 35 39 41 50 58 64 65 66 66 69 78 75 81 86 105 94 92 79
51 51 51 46 50 50 45 45 45 46 44 45 43 40 35 33 35 28 20 19 21 25 29 33 33 35 35 39 45 50 56 59 62 63 68 65 65 65 74 79 107 113 88
49 44 46 45 40 38 39 41 43 43 45 45 46 42 37 34 37 32 24 22 21 25 28 30 31 31 31 34 37 47 45 53 53 55 49 44 39 34 46 83 98 93 83
42 35 33 34 36 35 36 45 51 44 44 45 44 44 39 37 40 33 27 20 21 18 22 27 30 41 39 34 32 40 53 54 61 51 46 39 40 42 40 56 95 108 85
38 37 35 36 42 38 39 39 41 40 42 44 43 43 43 40 37 33 28 21 16 16 21 27 36 40 41 36 33 36 40 49 50 53 51 48 44 39 33 45 71 73 97
42 40 42 42 44 43 43 43 43 36 40 40 39 41 43 39 37 36 30 25 24 21 26 32 38 40 40 37 33 34 36 44 46 53 50 49 51 45 38 47 64 85 80
44 45 41 42 42 40 42 43 35 32 34 34 34 36 40 40 24 25 23 21 19 19 23 24 27 31 30 29 30 31 27 34 35 34 39 37 49 44 43 54 68 72 80
Wind_Direction_850mb
4 1 2 3 342 264 237 232 234 233 229 232 231 229 215 211 209 222 254 239 240 239 242 236 238 244 237 235 241 255 251 233 220 207 219 219 215 215 214 211 206 205 171
352 358 356 353 357 341 255 242 236 236 236 233 231 227 227 226 223 213 243 245 242 242 245 245 235 244 232 243 243 250 232 230 219 210 218 224 233 237 226 215 209 212 213
351 355 356 356 350 345 327 262 243 231 235 230 235 234 229 229 226 231 244 247 246 244 245 248 239 242 235 238 242 251 248 236 234 217 213 225 242 208 230 221 214 218 213
9 5 4 2 357 344 337 313 251 240 233 232 229 236 231 234 235 239 249 253 248 243 242 244 245 241 237 228 243 248 249 231 235 237 233 233 230 228 209 229 225 221 221
30 25 19 13 4 3 356 350 303 246 236 234 228 235 237 240 241 242 247 252 251 245 242 240 241 238 237 240 242 248 256 238 230 236 241 240 244 247 252 256 227 234 229
38 36 34 26 21 15 15 9 3 306 269 248 244 235 236 238 233 236 239 231 243 240 236 234 233 233 236 239 245 246 255 243 238 231 231 234 239 244 244 249 250 231 230
38 35 33 31 27 25 24 24 20 1 333 276 253 252 242 241 237 230 238 228 229 217 223 224 227 232 234 231 239 246 252 250 246 243 236 236 239 241 242 242 247 231 219
47 42 29 24 25 26 28 28 26 23 8 339 283 264 251 245 245 235 225 226 220 209 220 223 228 232 236 232 236 246 257 251 251 245 238 236 240 238 238 237 237 238 227
46 28 20 19 21 23 21 23 24 22 20 12 344 295 269 250 242 232 235 220 224 242 243 244 236 237 254 255 236 254 253 249 253 245 244 237 239 235 233 230 227 231 230
23 20 18 14 13 12 12 11 14 15 16 16 4 347 318 275 266 255 249 249 247 245 244 222 246 247 257 278 267 242 253 256 250 245 245 237 233 232 227 224 225 223 228
335 342 350 356 356 358 355 353 357 6 7 2 360 5 343 320 289 260 250 236 232 218 235 255 259 256 267 268 241 221 236 242 246 243 235 240 228 228 223 218 218 215 208
358 345 330 328 329 331 340 350 352 350 354 358 357 357 358 349 324 286 238 221 230 231 247 239 241 248 244 262 242 233 224 228 239 239 240 243 239 229 220 216 217 209 210
6 4 356 346 336 334 325 333 338 337 340 346 351 354 355 358 343 301 286 240 235 251 248 244 233 235 231 235 217 219 200 214 220 243 246 243 235 235 220 220 227 214 212
356 355 350 345 341 332 326 322 318 322 327 329 335 346 354 352 352 347 319 261 249 243 249 234 236 231 229 211 245 219 203 215 231 237 236 239 238 236 231 237 227 215 214
326 331 331 331 331 327 322 316 306 314 315 322 316 325 347 352 349 349 343 327 291 259 246 245 241 234 230 220 239 231 216 238 249 243 242 235 234 234 240 234 232 226 222
314 316 319 318 317 318 319 313 311 304 305 311 302 301 316 335 341 342 342 338 326 295 262 264 258 245 235 237 249 255 246 255 247 244 236 233 232 239 243 245 237 236 231
317 315 312 309 305 305 305 304 301 301 297 299 296 286 290 303 329 332 332 328 322 317 301 280 260 253 254 256 260 254 254 243 245 244 240 238 241 241 237 238 239 237 236
315 312 308 304 303 300 296 294 292 289 289 288 288 277 275 284 301 318 324 335 330 312 294 283 285 271 258 256 258 252 249 248 245 245 247 251 247 237 235 233 242 234 233
308 306 303 302 299 296 295 292 287 282 280 278 277 274 268 271 279 288 305 331 336 325 312 297 285 278 275 260 257 253 245 249 248 244 244 249 247 242 235 232 232 232 235
306 304 300 297 294 293 292 289 287 282 275 270 270 268 264 259 264 269 285 316 331 324 314 303 294 289 285 271 257 251 247 252 249 246 246 247 246 244 240 240 225 227 239
304 303 297 293 292 293 290 286 285 282 280 271 268 268 266 259 253 255 268 298 318 322 318 310 303 293 285 292 258 253 245 246 246 247 246 251 251 254 247 249 234 223 229
305 300 296 292 292 293 292 289 287 285 282 278 269 265 264 256 250 247 260 284 304 318 322 313 310 295 279 282 262 246 249 242 241 239 239 248 242 250 262 253 225 216 218
309 306 299 293 292 296 296 291 289 284 281 278 272 264 260 253 247 239 249 270 291 310 317 314 310 305 295 275 267 261 253 248 236 237 243 243 253 255 273 243 224 210 210
310 306 301 296 297 299 297 302 293 290 281 276 271 262 255 251 246 234 243 250 273 292 305 309 308 305 297 286 273 266 261 240 235 233 242 255 259 252 265 241 221 210 212
307 299 295 291 292 296 298 300 299 291 287 275 267 261 249 245 242 229 226 240 262 290 305 308 307 305 297 287 282 269 263 255 237 236 238 243 243 239 233 223 230 226 216
303 299 292 288 293 293 298 304 305 290 284 281 273 259 248 235 222 224 248 241 259 283 292 296 308 313 304 294 287 279 264 252 251 242 245 243 230 225 225 229 226 224 224